When you browse on this site, cookies collect data to enhance your experience and personalize the content and advertising you see.
Visit our Privacy Policy to learn more. By continuing to use the site, you agree to this use of cookies and data.
EN

Hourly Weather Mława

Today, 6 August, Thursday

Time Temperature Precipitation Wind Pressure Humidity
00:00 +13°C° 0 mm 3 mps 753 mmHg 79%
01:00 +13°C° 0 mm 3 mps 753 mmHg 80%
02:00 +14°C° 0 mm 2 mps 753 mmHg 81%
03:00 +13°C° 0 mm 2 mps 753 mmHg 82%
04:00 +13°C° 0 mm 2 mps 753 mmHg 83%
05:00 +15°C° 0 mm 2 mps 754 mmHg 79%
06:00 +16°C° 0 mm 2 mps 754 mmHg 76%
07:00 +17°C° 0 mm 3 mps 754 mmHg 73%
08:00 +19°C° 0 mm 3 mps 755 mmHg 67%
09:00 +21°C° 0 mm 3 mps 755 mmHg 62%
10:00 +24°C° 0 mm 3 mps 755 mmHg 56%
11:00 +24°C° 0 mm 3 mps 755 mmHg 55%
12:00 +25°C° 0 mm 3 mps 755 mmHg 54%
13:00 +26°C° 0 mm 4 mps 755 mmHg 53%
14:00 +26°C° 0 mm 4 mps 754 mmHg 55%
15:00 +26°C° 0 mm 4 mps 754 mmHg 56%
16:00 +26°C° 0 mm 4 mps 754 mmHg 58%
17:00 +25°C° 0 mm 3 mps 754 mmHg 64%
18:00 +22°C° 0 mm 3 mps 754 mmHg 71%
19:00 +21°C° 0 mm 3 mps 754 mmHg 77%
20:00 +20°C° 0 mm 3 mps 754 mmHg 79%
21:00 +19°C° 0 mm 3 mps 755 mmHg 81%
22:00 +19°C° 0 mm 3 mps 755 mmHg 83%
23:00 +18°C° 0 mm 3 mps 755 mmHg 85%

Tomorrow, 7 August, Friday

Time Temperature Precipitation Wind Pressure Humidity
00:00 +18°C° 0 mm 3 mps 755 mmHg 87%
01:00 +18°C° 0 mm 3 mps 755 mmHg 90%
02:00 +17°C° 0 mm 3 mps 755 mmHg 89%
03:00 +17°C° 0 mm 3 mps 755 mmHg 89%
04:00 +17°C° 0 mm 3 mps 755 mmHg 88%
05:00 +18°C° 0 mm 3 mps 755 mmHg 85%
06:00 +19°C° 0 mm 4 mps 755 mmHg 82%
07:00 +21°C° 0 mm 4 mps 756 mmHg 79%
08:00 +22°C° 0 mm 4 mps 756 mmHg 75%
09:00 +25°C° 0 mm 4 mps 756 mmHg 70%
10:00 +27°C° 0 mm 4 mps 756 mmHg 66%
11:00 +27°C° 0 mm 4 mps 755 mmHg 64%
12:00 +28°C° 0 mm 4 mps 755 mmHg 61%
13:00 +29°C° 0 mm 4 mps 755 mmHg 58%
14:00 +29°C° 0.3 mm 4 mps 755 mmHg 59%
15:00 +29°C° 0.3 mm 4 mps 754 mmHg 60%
16:00 +29°C° 0.3 mm 3 mps 754 mmHg 60%
17:00 +27°C° 0.4 mm 3 mps 754 mmHg 67%
18:00 +26°C° 0.4 mm 3 mps 754 mmHg 73%
19:00 +24°C° 0.4 mm 3 mps 754 mmHg 80%
20:00 +22°C° 0 mm 3 mps 754 mmHg 81%
21:00 +21°C° 0 mm 3 mps 754 mmHg 83%
22:00 +20°C° 0 mm 3 mps 754 mmHg 84%
23:00 +20°C° 0 mm 3 mps 754 mmHg 85%

Day after tomorrow, 8 August, Saturday

Time Temperature Precipitation Wind Pressure Humidity
00:00 +19°C° 0 mm 3 mps 754 mmHg 86%
01:00 +19°C° 0 mm 2 mps 754 mmHg 87%
02:00 +18°C° 0 mm 2 mps 754 mmHg 87%
03:00 +18°C° 0 mm 2 mps 754 mmHg 88%
04:00 +17°C° 0 mm 2 mps 754 mmHg 89%
05:00 +19°C° 0 mm 3 mps 754 mmHg 86%
06:00 +20°C° 0 mm 3 mps 754 mmHg 83%
07:00 +21°C° 0 mm 3 mps 754 mmHg 80%
08:00 +22°C° 0 mm 3 mps 754 mmHg 74%
09:00 +25°C° 0 mm 3 mps 754 mmHg 68%
10:00 +27°C° 0 mm 3 mps 754 mmHg 62%
11:00 +28°C° 0 mm 3 mps 754 mmHg 59%
12:00 +28°C° 0 mm 3 mps 754 mmHg 56%
13:00 +29°C° 0 mm 3 mps 754 mmHg 53%
14:00 +29°C° 0 mm 2 mps 753 mmHg 53%
15:00 +29°C° 0 mm 2 mps 753 mmHg 53%
16:00 +29°C° 0 mm 2 mps 753 mmHg 53%
17:00 +27°C° 0 mm 2 mps 753 mmHg 59%
18:00 +26°C° 0 mm 2 mps 752 mmHg 64%
19:00 +24°C° 0 mm 2 mps 752 mmHg 70%
20:00 +24°C° 0 mm 2 mps 752 mmHg 72%
21:00 +23°C° 0 mm 2 mps 752 mmHg 73%
22:00 +21°C° 0 mm 2 mps 753 mmHg 75%
23:00 +20°C° 0 mm 2 mps 752 mmHg 77%

9 August, Sunday

Time Temperature Precipitation Wind Pressure Humidity
00:00 +20°C° 0 mm 2 mps 752 mmHg 80%
01:00 +20°C° 0 mm 2 mps 752 mmHg 83%
02:00 +20°C° 0 mm 1 mps 752 mmHg 84%
03:00 +20°C° 0 mm 1 mps 752 mmHg 85%
04:00 +20°C° 0 mm 1 mps 752 mmHg 87%
05:00 +21°C° 0 mm 1 mps 752 mmHg 82%
06:00 +23°C° 0 mm 1 mps 752 mmHg 77%
07:00 +24°C° 0 mm 1 mps 752 mmHg 72%
08:00 +26°C° 0.1 mm 1 mps 752 mmHg 67%
09:00 +27°C° 0.1 mm 1 mps 752 mmHg 62%
10:00 +27°C° 0.1 mm 0 mps 752 mmHg 57%
11:00 +29°C° 0.7 mm 1 mps 752 mmHg 56%
12:00 +29°C° 0.7 mm 1 mps 752 mmHg 55%
13:00 +29°C° 0.7 mm 1 mps 752 mmHg 55%
14:00 +28°C° 1.2 mm 1 mps 751 mmHg 58%
15:00 +28°C° 1.2 mm 2 mps 751 mmHg 61%
16:00 +27°C° 1.2 mm 2 mps 751 mmHg 64%
17:00 +26°C° 0.2 mm 2 mps 751 mmHg 69%
18:00 +25°C° 0.2 mm 2 mps 751 mmHg 74%
19:00 +24°C° 0.2 mm 1 mps 751 mmHg 78%
20:00 +23°C° 0 mm 2 mps 751 mmHg 81%
21:00 +21°C° 0 mm 2 mps 751 mmHg 83%
22:00 +21°C° 0 mm 2 mps 751 mmHg 86%
23:00 +20°C° 0 mm 2 mps 751 mmHg 87%

10 August, Monday

Time Temperature Precipitation Wind Pressure Humidity
00:00 +20°C° 0 mm 2 mps 751 mmHg 88%
01:00 +19°C° 0 mm 2 mps 751 mmHg 89%
02:00 +19°C° 0 mm 2 mps 751 mmHg 90%
03:00 +18°C° 0 mm 2 mps 751 mmHg 91%
04:00 +18°C° 0 mm 2 mps 751 mmHg 92%
05:00 +19°C° 0 mm 2 mps 751 mmHg 88%
06:00 +20°C° 0 mm 2 mps 752 mmHg 85%
07:00 +21°C° 0 mm 2 mps 752 mmHg 81%
08:00 +24°C° 0 mm 2 mps 752 mmHg 75%
09:00 +25°C° 0 mm 2 mps 752 mmHg 68%
10:00 +27°C° 0 mm 2 mps 752 mmHg 62%
11:00 +27°C° 0.4 mm 2 mps 752 mmHg 59%
12:00 +28°C° 0.4 mm 2 mps 752 mmHg 57%
13:00 +29°C° 0.4 mm 2 mps 751 mmHg 54%
14:00 +29°C° 0.2 mm 2 mps 751 mmHg 54%
15:00 +28°C° 0.2 mm 2 mps 751 mmHg 54%
16:00 +28°C° 0.2 mm 2 mps 751 mmHg 53%
17:00 +27°C° 0 mm 2 mps 751 mmHg 59%
18:00 +25°C° 0 mm 2 mps 751 mmHg 65%
19:00 +24°C° 0 mm 2 mps 751 mmHg 71%
20:00 +23°C° 0 mm 2 mps 751 mmHg 75%
21:00 +21°C° 0 mm 2 mps 752 mmHg 79%
22:00 +20°C° 0 mm 2 mps 752 mmHg 83%
23:00 +20°C° 0 mm 2 mps 752 mmHg 85%

11 August, Tuesday

Time Temperature Precipitation Wind Pressure Humidity
00:00 +19°C° 0 mm 2 mps 752 mmHg 86%
01:00 +19°C° 0 mm 2 mps 752 mmHg 87%
02:00 +19°C° 0 mm 2 mps 752 mmHg 88%
03:00 +18°C° 0 mm 2 mps 752 mmHg 89%
04:00 +18°C° 0 mm 2 mps 752 mmHg 90%
05:00 +19°C° 0 mm 2 mps 752 mmHg 86%
06:00 +20°C° 0 mm 2 mps 752 mmHg 83%
07:00 +21°C° 0 mm 2 mps 752 mmHg 79%
08:00 +24°C° 0.1 mm 2 mps 752 mmHg 73%
09:00 +25°C° 0.1 mm 2 mps 752 mmHg 67%
10:00 +26°C° 0.1 mm 2 mps 752 mmHg 62%
11:00 +27°C° 0 mm 2 mps 752 mmHg 58%
12:00 +28°C° 0 mm 2 mps 751 mmHg 55%
13:00 +28°C° 0 mm 2 mps 751 mmHg 51%
14:00 +28°C° 0.1 mm 2 mps 751 mmHg 53%
15:00 +28°C° 0.1 mm 2 mps 751 mmHg 55%
16:00 +28°C° 0.1 mm 2 mps 751 mmHg 56%
17:00 +26°C° 0.1 mm 2 mps 751 mmHg 63%
18:00 +25°C° 0.1 mm 2 mps 751 mmHg 70%
19:00 +23°C° 0.1 mm 2 mps 751 mmHg 77%
20:00 +21°C° 0 mm 3 mps 751 mmHg 80%
21:00 +20°C° 0 mm 3 mps 751 mmHg 84%
22:00 +20°C° 0 mm 3 mps 751 mmHg 88%
23:00 +19°C° 0 mm 3 mps 751 mmHg 90%
Show more